Content
SEND FEEDBACK

Daily
Averages
Monthly
Summary
United States of America

ST. LOUIS, MISSOURI


Home > North America > United States > Missouri
Elevation: 163 meters     Latitude: 38 45N     Longitude: 090 22W

WEATHER
 
SELECT A DAY
Number of Records: 196,698;   Date Range: 1/1/95 - 9/22/14
 
SHARE

PRINT THIS DATA

[ ← Previous Day ]
WEATHER ALMANAC - 14 MARCH, 2013
[ Next Day → ]
[ °F ]   °C
Weather ElementAverageHighLow
Temperature3.8 °C12.2 °C (4:54 pm)-3.9 °C (2:54 am)
Dewpoint-4.4 °C-0.6 °C (9:54 pm)-7.8 °C (7:54 am)
Humidity57.8 %85 % (11:54 pm)34 % (3:54 pm)
Barometer1024 hPa1030.1 hPa (2:54 am)1019.3 hPa (5:54 pm)
Wind Speed7.1 km/h18.5 km/h (4:54 pm)
Wind Gust27.8 km/h (1:54 pm)
Weather ElementAverage
Visibility16.1 km
Wind DirectionENE (82.2 °)

Weather ElementTotal
Precipitation---
Heating Degree Days14.2 (Base 18.3)
Averaged from 23 records on 14 March, 2013
WEATHER CONDITIONS BREAKOUT
WIND DIRECTION BREAKOUT
WEATHER BY HOUR - 14 MARCH, 2013
[ °F ]   °C
Local TimeTemperatureDewpointHumidityBarometerVisibilityWind DirectionWind SpeedGust SpeedPrecipitationEventsConditions
1:54 AM-3.3 °C-6.7 °C78 %1029.8 hPa16.1 kmCalmClear
2:54 AM-3.9 °C-7.2 °C78 %1030.1 hPa16.1 kmCalmClear
3:54 AM-3.3 °C-6.1 °C81 %1028.8 hPa16.1 kmCalmClear
4:54 AM-3.3 °C-6.7 °C78 %1028.4 hPa16.1 kmCalmOvercast
5:54 AM-1.7 °C-5 °C78 %1028.4 hPa16.1 kmCalmOvercast
6:54 AM0.6 °C-7.2 °C56 %1027.8 hPa16.1 kmSSE (160°)7.4 km/hOvercast
7:54 AM1.1 °C-7.8 °C52 %1027.8 hPa16.1 kmVariable5.6 km/hOvercast
8:54 AM1.7 °C-7.8 °C50 %1027.8 hPa16.1 kmVariable7.4 km/hOvercast
9:54 AM2.8 °C-7.8 °C46 %1027.8 hPa16.1 kmSouth (190°)5.6 km/hOvercast
10:54 AM2.8 °C-6.7 °C50 %1027.4 hPa16.1 kmSW (230°)9.3 km/h0 mmOvercast
11:54 AM4.4 °C-4.4 °C53 %1025.1 hPa16.1 kmSSE (160°)13 km/h0 mmOvercast
12:54 PM6.1 °C-4.4 °C47 %1023.7 hPa16.1 kmSouth (170°)13 km/h0 mmRainLight Rain
1:54 PM8.9 °C-3.9 °C41 %1022.4 hPa16.1 kmSSE (160°)14.8 km/h27.8 km/h0 mmMostly Cloudy
2:54 PM9.4 °C-3.9 °C39 %1021.7 hPa16.1 kmSSE (150°)14.8 km/hMostly Cloudy
3:54 PM11.7 °C-3.9 °C34 %1020.7 hPa16.1 kmSouth (180°)16.7 km/hScattered Clouds
4:54 PM12.2 °C-2.8 °C35 %1020 hPa16.1 kmSSE (160°)18.5 km/hPartly Cloudy
5:54 PM11.7 °C-2.8 °C37 %1019.3 hPa16.1 kmVariable5.6 km/hMostly Cloudy
6:54 PM10 °C-1.7 °C44 %1019.3 hPa16.1 kmEast (90°)7.4 km/hScattered Clouds
7:54 PM7.2 °C-1.7 °C53 %1019.6 hPa16.1 kmEast (80°)9.3 km/hClear
8:54 PM4.4 °C-1.1 °C68 %1020 hPa16.1 kmEast (90°)7.4 km/hClear
9:54 PM5 °C-0.6 °C67 %1019.6 hPa16.1 kmENE (70°)5.6 km/hClear
10:54 PM2.2 °C-1.1 °C79 %1019.6 hPa16.1 kmCalmClear
11:54 PM1.1 °C-1.1 °C85 %1019.6 hPa16.1 kmCalmClear
Hourly data recorded from KSUS, located 0 kilometers away from St. Louis, Missouri







STORIES FROM OUR PARTNERS